Location: Unspecified
(0.0000°N, 0.0000°E)
Time: 11:57:51
(UTC+00:00)

ISS - Pass Details

Date: 19 May 2018
Orbit: 402 x 407 km, 51.6° (Epoch: 20 May)

Event Time Altitude Azimuth Distance (km) Brightness Sun altitude
Rises 18:35:11 0° 209° (SSW) 2,320 0.1 -9.1°
Reaches altitude 10° 18:37:17 10° 205° (SSW) 1,458 -0.9 -9.6°
Maximum altitude 18:40:30 57° 125° (SE) 479 -3.8 -10.3°
Drops below altitude 10° 18:43:42 10° 46° (NE) 1,448 -1.3 -11.1°
Sets 18:45:47 0° 42° (NE) 2,303 -0.2 -11.6°
